Погода в Жёлтом Яре

Россия / Еврейская автономная область     48°34′12″N   133°03′25″E
темп.,
°C
ветер,
м/с
пор.,
м/с
влажн.,
%
обл.,
%
осадки,
мм/ч
давл.,
гПа
погр.,
м
1 августа, вс
вс101:00+15всв4129774 0.0 1007467
04:00+15всв499650 0.0 1007396
07:00+16всв489075 0.0 1007360
10:00+17всв4783100 0.0 1008419
13:00+26всв576055 0.0 10071070
16:00+27в6956100 0.0 10061012
19:00+25всв6105998 0.0 1006890
22:00+21всв5116861 0.0 1007486
2 августа, пн
пн201:00+19всв41170100 0.0 1008477
04:00+18св4872100 0.0 1009409
07:00+17всв3776100 0.0 1009320
10:00+18всв357459 0.0 1010348
13:00+28всв34530 0.0 10081037
16:00+31всв33471 0.0 10071165
19:00+28св46607 0.0 1006492
22:00+24св367545 0.0 1007126
3 августа, вт
вт301:00+23св257342 0.0 1007124
04:00+22св267699 0.0 1007195
07:00+21св378097 0.0 1008259
10:00+26в34639 0.0 1008698
13:00+31в334910 0.0 10061255
16:00+33всв334577 0.0 10041675
19:00+23всв2286100 0.6 100547
22:00+22вюв2292100 1.3 100531
4 августа, ср
ср401:00+21в3898100 0.6 1005275
04:00+19всв3598100 1.2 1006251
07:00+17св3599100 0.3 1006248
10:00+19всв2397100 0.8 1006323
13:00+20св2295100 0.1 1005298
16:00+20св449191 0.1 1004325
19:00+21св458553 0.1 1003448
22:00+18ссв2594100 0.1 1004194
5 августа, чт
чт501:00+17св1298100 0.0 100454
04:00+16св1199100 0.0 100422
07:00+17в1298100 0.0 100591
10:00+19всв2392100 0.0 1005294
13:00+21всв237798 0.0 1004575
16:00+21св2482100 0.0 1003251
19:00+20ссв3684100 0.0 1002349
22:00+18св3894100 0.1 1002276